Content
SEND FEEDBACK

Daily
Averages
Monthly
Summary
United States of America

ROCKFISH, VIRGINIA


Home > North America > United States > Virginia
Elevation: 49 feet     Latitude: 37 48N     Longitude: 078 45W

WEATHER
 
SELECT A DAY
Number of Records: 209,857;   Date Range: 1/1/95 - 10/24/14
 
SHARE

PRINT THIS DATA

[ ← Previous Day ]
WEATHER ALMANAC - JULY 13, 2014
[ Next Day → ]
[ °C ]   °F
Weather ElementAverageHighLow
Temperature81.4 °F91.4 °F (12:58 pm)72.5 °F (8:58 pm)
Dewpoint71 °F73.4 °F (5:39 pm)68 °F (1:04 pm)
Humidity71.8 %92 % (7:58 am)51 % (11:15 am)
Barometer30.02 in30.13 in (1:58 pm)29.93 in (2:49 pm)
Wind Speed4.7 mph11.5 mph (11:58 am)
Wind Gust16.1 mph (9:58 am)
Weather ElementAverage
Visibility9.4 mi
Wind DirectionESE (128.5 °)

Weather ElementTotal
Precipitation---
Cooling Degree Days17 (Base 65)
Growing Degree Days32 (Base 50)
Averaged from 33 records on July 13, 2014
WEATHER CONDITIONS BREAKOUT
WIND DIRECTION BREAKOUT
WEATHER BY HOUR - JULY 13, 2014
[ °C ]   °F
Local TimeTemperatureDewpointHumidityBarometerVisibilityWind DirectionWind SpeedGust SpeedPrecipitationEventsConditions
12:58 AM74.7 °F68.0 °F80 %30.13 in10.0 miSSE (150°)3.5 mphClear
1:58 AM73.8 °F68.7 °F84 %30.12 in10.0 miSE (130°)5.8 mphClear
2:58 AM73.6 °F69.3 °F86 %30.11 in10.0 miSSE (150°)4.6 mphMostly Cloudy
3:58 AM73.4 °F69.8 °F88 %30.10 in10.0 miSE (140°)3.5 mphClear
4:58 AM73.6 °F70.2 °F89 %30.11 in10.0 miSSE (150°)3.5 mphScattered Clouds
5:58 AM72.5 °F70.0 °F92 %30.09 in10.0 miVariable4.6 mphClear
6:58 AM73.0 °F70.2 °F91 %30.09 in10.0 miSE (140°)5.8 mphClear
7:58 AM76.8 °F71.4 °F83 %30.09 in6.0 miVariable5.8 mphHaze
8:58 AM78.8 °F71.4 °F78 %30.08 in10.0 miSouth (180°)4.6 mphClear
9:58 AM81.1 °F71.4 °F72 %30.07 in10.0 miVariable5.8 mphClear
10:58 AM83.3 °F71.8 °F68 %30.06 in10.0 miSSE (150°)11.5 mphClear
11:58 AM86.2 °F72.5 °F64 %30.05 in10.0 miSSE (160°)9.2 mphClear
12:58 PM87.8 °F72.0 °F59 %30.04 in10.0 miSouth (180°)8.1 mphPartly Cloudy
1:58 PM88.7 °F71.6 °F57 %30.02 in10.0 miSouth (170°)10.4 mphPartly Cloudy
2:58 PM90.9 °F71.6 °F53 %30.00 in10.0 miVariable6.9 mphPartly Cloudy
3:58 PM91.4 °F71.2 °F51 %29.97 in10.0 miSouth (170°)8.1 mph16.1 mphClear
4:58 PM89.1 °F70.9 °F55 %29.95 in10.0 miVariable4.6 mphPartly Cloudy
5:58 PM90.7 °F71.2 °F53 %29.94 in10.0 miVariable5.8 mphClear
6:58 PM88.9 °F72.5 °F58 %29.94 in10.0 miSSE (150°)4.6 mphPartly Cloudy
7:58 PM86.2 °F72.1 °F63 %29.93 in10.0 miSSE (150°)5.8 mphScattered Clouds
8:58 PM84.2 °F71.1 °F65 %29.96 in10.0 miVariable1.2 mphMostly Cloudy
9:28 PM82.4 °F73.4 °F74 %29.95 in9.0 miVariable1.2 mphMostly Cloudy
9:38 PM82.4 °F71.6 °F70 %29.96 in10.0 miCalmMostly Cloudy
9:48 PM82.4 °F73.4 °F74 %29.96 in6.0 miNorth (350°)1.2 mphHaze
9:58 PM82.4 °F71.6 °F70 %29.98 in4.0 miNNW (340°)3.5 mphHaze
10:08 PM82.4 °F69.8 °F66 %29.97 in6.0 miNNW (340°)5.8 mphHaze
10:13 PM84.2 °F69.8 °F62 %29.98 in10.0 miVariable4.6 mphMostly Cloudy
10:16 PM84.2 °F69.8 °F62 %29.98 in10.0 miNNW (330°)5.8 mphRainLight Rain
10:31 PM80.6 °F71.6 °F74 %29.98 in8.0 miVariable1.2 mphRainLight Rain
10:41 PM78.8 °F71.6 °F78 %29.98 in10.0 miNorth (360°)2.3 mphRainLight Rain
10:42 PM77.0 °F71.6 °F83 %29.98 in10.0 miNorth (350°)2.3 mphScattered Clouds
10:58 PM76.6 °F70.2 °F80 %29.99 in10.0 miCalm0.00 inScattered Clouds
11:58 PM74.7 °F70.3 °F86 %29.96 in10.0 miVariable3.5 mphScattered Clouds
Hourly data recorded from KDAA, located miles away from Rockfish, Virginia







STORIES FROM OUR PARTNERS